Regional Weather Roundup
Issued by NWS

Home | Current Version | Previous Version | Text Only | Print | Product List | Glossary Off
Versions: 1 2 3 4 5 6 7 8 9 10 11 12 13 14 15 16 17 18 19 20 21 22 23 24 25 26 27 28 29 30 31 32 33 34 35 36 37 38 39 40 41 42 43 44 45 46 47 48 49 50

952
ASUS44 KLIX 300207
RWRLA
LOUISIANA WEATHER ROUNDUP
NATIONAL WEATHER SERVICE NEW ORLEANS LA
900 PM CDT SUN MAR 29 2015

NOTE: "FAIR" INDICATES FEW OR NO CLOUDS BELOW 12,000 FEET WITH NO
      SIGNIFICANT WEATHER AND/OR OBSTRUCTIONS TO VISIBILITY.
      SKY/WX - SKY CONDITION AND SIGNIFICANT WEATHER.
      TMP - AIR TEMPERATURE.    DP   - DEWPOINT TEMPERATURE.
      RH  - RELATIVE HUMIDITY.  PRES - PRESSURE.
      HX  - HEAT INDEX.         WCI  - WIND CHILL INDEX.

*  THESE STATIONS ARE NOT NWS OR FAA STATIONS AND ARE NOT UNDER
   NWS QUALITY CONTROL.

LAZ040-048-061>063-065-066-069-300300-
SOUTHEAST LOUISIANA

CITY           SKY/WX    TMP DP  RH WIND       PRES   REMARKS
N.O. AUDUBON   NOT AVBL
N.O. INTL ARPT PTCLDY    68  62  81 S8        30.21S
N.O. LAKEFRONT PTCLDY    70  61  73 S12       30.22R
SLIDELL        CLEAR     67  63  87 S7        30.21R
BATON ROUGE    CLEAR     70  58  65 S10       30.19R
BOOTHVILLE     PTCLDY    67  62  84 SE9       30.25R
BELLE CHASSE   CLEAR     66  62  87 S9        30.21S
BOGALUSA*        N/A     67  60  76 S5        30.21S
GALLIANO*      MOCLDY    69  65  86 S3        30.23R
NEW ROADS*     FAIR      69  59  71 S6        30.18R
GONZALES*      FAIR      68  60  74 CALM      30.20R
HAMMOND*       CLEAR     66  59  77 S3        30.22R
HOUMA*         CLEAR     65  63  94 S5        30.21S
PORT FOURCHON* CLEAR     72  64  78 S6        30.26

$$

LAZ041-044-053-054-300300-
SOUTHWEST LOUISIANA

CITY           SKY/WX    TMP DP  RH WIND       PRES   REMARKS
LAKE CHARLES   CLEAR     67  63  87 S6        30.16S
LAFAYETTE      CLEAR     69  62  78 S7        30.19R
PATTERSON      CLEAR     64  59  82 S5        30.22R
SALT POINT       N/A     66  64  93 VRB5      30.20R
NEW IBERIA     CLEAR     67  63  87 S8        30.19S
CHENAULT AIRPK NOT AVBL

$$

LAZ027-028-300300-
CENTRAL LOUISIANA

CITY           SKY/WX    TMP DP  RH WIND       PRES   REMARKS
FORT POLK      NOT AVBL
ALEXANDRIA INT CLEAR     69  58  67 S12       30.12R
ALEXANDRIA     CLEAR     69  57  65 SW9       30.14R

$$

LAZ001-002-300300-
NORTHWEST LOUISIANA

CITY           SKY/WX    TMP DP  RH WIND       PRES   REMARKS
SHREVEPORT     CLEAR     74  57  55 S10       30.05R
BARKSDALE AFB  CLEAR     73  56  54 S9        30.05R
DTN SHREVEPORT CLEAR     73  55  53 S13       30.05R

$$

LAZ014-016-300300-
NORTHEAST LOUISIANA

CITY           SKY/WX    TMP DP  RH WIND       PRES   REMARKS
MONROE         CLEAR     73  57  57 S7        30.08R
TALLULAH       CLEAR     72  54  53 S7        30.09R

$$




USA.gov is the U.S. government's official web portal to all federal, state and local government web resources and services.